Location: Chavenne
(46.6022°N, 3.2951°E)
Time: 19:53:09
(UTC+00:00)

Cosmos 1980 Rocket - Pass Details

Date: 09 April 2020
Orbit: 828 x 850 km, 71.0° (Epoch: 31 May)

Event Time Altitude Azimuth Distance (km) Brightness Sun altitude
Rises 23:21:23 0° 321° (NW) 3,390 6.1 -35.0°
Reaches altitude 10° 23:24:25 10° 305° (NW) 2,455 5.0 -35.1°
Enters shadow 23:26:18 17° 288° (WNW) 2,026 4.3 -35.1°
